TimeEST,TemperatureF,Dew PointF,Humidity,Sea Level PressureIn,VisibilityMPH,Wind Direction,Wind SpeedMPH,Gust SpeedMPH,PrecipitationIn,Events,Conditions,WindDirDegrees,DateUTC
12:53 AM,35.1,21.9,59,30.04,10.0,Calm,Calm,-,N/A,,Clear,0,2012-12-28 05:53:00
1:53 AM,34.0,21.9,61,30.04,10.0,Calm,Calm,-,N/A,,Clear,0,2012-12-28 06:53:00
2:53 AM,34.0,21.9,61,30.06,10.0,Variable,4.6,-,N/A,,Clear,0,2012-12-28 07:53:00
3:53 AM,34.0,21.9,61,30.08,10.0,Calm,Calm,-,N/A,,Clear,0,2012-12-28 08:53:00
4:53 AM,34.0,21.9,61,30.07,10.0,Calm,Calm,-,N/A,,Clear,0,2012-12-28 09:53:00
5:53 AM,34.0,21.9,61,30.08,10.0,NW,5.8,-,N/A,,Clear,320,2012-12-28 10:53:00
6:53 AM,33.1,21.9,64,30.09,10.0,Calm,Calm,-,N/A,,Clear,0,2012-12-28 11:53:00
7:53 AM,33.1,21.9,64,30.09,10.0,Calm,Calm,-,N/A,,Clear,0,2012-12-28 12:53:00
8:53 AM,32.0,25.0,75,30.13,10.0,South,3.5,-,N/A,,Clear,180,2012-12-28 13:53:00
9:53 AM,37.0,23.0,57,30.13,10.0,Calm,Calm,-,N/A,,Clear,0,2012-12-28 14:53:00
10:53 AM,39.0,24.1,55,30.15,10.0,SSW,3.5,-,N/A,,Clear,210,2012-12-28 15:53:00
11:53 AM,39.9,24.1,53,30.11,10.0,South,4.6,-,N/A,,Clear,180,2012-12-28 16:53:00
1:53 PM,39.9,25.0,55,30.09,10.0,SW,9.2,-,N/A,,Mostly Cloudy,230,2012-12-28 18:53:00
2:53 PM,41.0,25.0,53,30.07,10.0,SW,9.2,-,N/A,,Clear,230,2012-12-28 19:53:00
3:53 PM,39.0,25.0,57,30.06,10.0,South,4.6,-,N/A,,Clear,180,2012-12-28 20:53:00
4:53 PM,37.9,25.0,60,30.04,10.0,SSE,5.8,-,N/A,,Clear,160,2012-12-28 21:53:00
5:53 PM,37.0,24.1,59,30.05,10.0,Calm,Calm,-,N/A,,Clear,0,2012-12-28 22:53:00
6:53 PM,36.0,24.1,62,30.06,10.0,Calm,Calm,-,N/A,,Clear,0,2012-12-28 23:53:00
7:53 PM,34.0,25.0,70,30.06,10.0,Calm,Calm,-,N/A,,Clear,0,2012-12-29 00:53:00
8:53 PM,35.1,25.0,67,30.07,10.0,Calm,Calm,-,N/A,,Clear,0,2012-12-29 01:53:00
9:53 PM,34.0,25.0,70,30.04,10.0,Calm,Calm,-,N/A,,Clear,0,2012-12-29 02:53:00
10:53 PM,34.0,25.0,70,30.04,10.0,Calm,Calm,-,N/A,,Clear,0,2012-12-29 03:53:00
11:53 PM,34.0,26.1,73,30.01,10.0,Calm,Calm,-,N/A,,Overcast,0,2012-12-29 04:53:00